Kamloops,

12:09 AM PDT on August 17, 2017 (GMT -0700)
Kamloops

Weather History for CYKA - February, 2013

Change the Weather History Date:

Friday, February 15, 2013

  Actual Average Record
Temperature  
Mean Temperature 36 °F -  
Max Temperature 45 °F 44 °F 48 °F (2015)
Min Temperature 28 °F 26 °F 27 °F (2015)
Degree Days  
Heating Degree Days 28    
Moisture  
Dew Point 29 °F    
Average Humidity 74    
Maximum Humidity 87    
Minimum Humidity 49    
Precipitation  
Precipitation 0.00 in 0.02 in - ()
Sea Level Pressure  
Sea Level Pressure 30.44 in    
Wind  
Wind Speed 2 mph ()    
Max Wind Speed 5 mph    
Max Gust Speed -    
Averages and records for this station are not official NWS values.
T = Trace of Precipitation, MM = Missing Value Source: Averaged Metar Reports

Daily Weather History Graph

Daily Weather History Graph

Search for Another Location

Airport or City:

Trip Planner

Search our weather history database for the weather conditions in past years. The results will help you decide how hot, cold, wet, or windy it might be!

Date:

Astronomy

Feb. 15, 2013 Rise Set
Actual Time 7:13 AM PST 5:19 PM PST
Civil Twilight 6:39 AM PST 5:53 PM PST
Nautical Twilight 6:00 AM PST 6:31 PM PST
Astronomical Twilight 5:23 AM PST 7:09 PM PST
Moon 9:10 AM PST (2/15) No Moon Set
Length of Visible Light 11h 14m
Length of Day
10h 06m
Waxing Crescent, 31% of the Moon is Illuminated
Feb 15
Waxing Crescent
Feb 17
First Quarter
Feb 25
Full
Mar 4
Last Quarter
Mar 11
New

Hourly Weather History & Observations

Time (PST) Temp. Windchill Dew Point Humidity Pressure Visibility Wind Dir Wind Speed Gust Speed Precip Events Conditions
12:00 AM 32.0 °F - 26.6 °F 80% 30.58 in 40.0 mi Calm Calm - N/A   Mostly Cloudy
1:00 AM 32.0 °F - 26.6 °F 80% 30.58 in 40.0 mi Calm Calm - N/A   Mostly Cloudy
2:00 AM 32.0 °F 28.7 °F 26.6 °F 80% 30.58 in 40.0 mi North 3.5 mph - N/A   Mostly Cloudy
3:00 AM 33.8 °F 30.8 °F 28.4 °F 81% 30.58 in 40.0 mi ESE 3.5 mph - N/A   Scattered Clouds
4:00 AM 31 °F - 26 °F 76% 30.57 in 37 mi NE 2.3 mph - -   Partly Cloudy
4:00 AM 30.2 °F - 26.6 °F 86% 30.57 in 40.0 mi ENE 2.3 mph - N/A   Scattered Clouds
5:00 AM 32.0 °F 28.7 °F 26.6 °F 80% 30.57 in 40.0 mi East 3.5 mph - N/A   Scattered Clouds
6:00 AM 30.2 °F - 24.8 °F 80% 30.56 in 40.0 mi Calm Calm - N/A   Scattered Clouds
7:00 AM 30.2 °F 25.4 °F 26.6 °F 86% 30.55 in 40.0 mi NE 4.6 mph - N/A   Mostly Cloudy
8:00 AM 32.0 °F - 28.4 °F 87% 30.54 in 40.0 mi Calm Calm - N/A   Mostly Cloudy
9:00 AM 33.8 °F - 28.4 °F 81% 30.54 in 40.0 mi Calm Calm - N/A   Mostly Cloudy
10:00 AM 37 °F - 28 °F 61% 30.51 in 37 mi East 2.3 mph - -   Scattered Clouds
10:00 AM 37.4 °F 34.9 °F 28.4 °F 70% 30.51 in 40.0 mi East 3.5 mph - N/A   Mostly Cloudy
11:00 AM 39.2 °F 35.9 °F 30.2 °F 70% 30.48 in 40.0 mi ESE 4.6 mph - N/A   Scattered Clouds
12:00 PM 42.8 °F - 30.2 °F 61% 30.45 in 40.0 mi Calm Calm - N/A   Partly Cloudy
1:00 PM 42.8 °F - 30.2 °F 61% 30.40 in 40.0 mi West 2.3 mph - N/A   Scattered Clouds
2:00 PM 42.8 °F 40.1 °F 32.0 °F 66% 30.37 in 40.0 mi West 4.6 mph - N/A   Mostly Cloudy
3:00 PM 44.6 °F - 32.0 °F 61% 30.35 in 40.0 mi SW 2.3 mph - N/A   Mostly Cloudy
4:00 PM 43 °F - 30 °F 49% 30.34 in 37 mi Calm Calm - -   Partly Cloudy
4:00 PM 42.8 °F - 30.2 °F 61% 30.34 in 40.0 mi Calm Calm - N/A   Mostly Cloudy
5:00 PM 39.2 °F 37.0 °F 32.0 °F 75% 30.32 in 40.0 mi NW 3.5 mph - N/A   Mostly Cloudy
6:00 PM 39.2 °F - 30.2 °F 70% 30.30 in 40.0 mi Calm Calm - N/A   Overcast
7:00 PM 37.4 °F - 30.2 °F 75% 30.30 in 40.0 mi Calm Calm - N/A   Overcast
8:00 PM 37.4 °F 33.8 °F 30.2 °F 75% 30.28 in 40.0 mi East 4.6 mph - N/A   Overcast
9:00 PM 35.6 °F - 28.4 °F 75% 30.28 in 40.0 mi Calm Calm - N/A   Overcast
10:00 PM 35 °F - 29 °F 71% 30.26 in 37 mi Calm Calm - -   Overcast
10:00 PM 35.6 °F - 28.4 °F 75% 30.26 in 40.0 mi Calm Calm - N/A   Overcast
11:00 PM 33.8 °F - 30.2 °F 87% 30.24 in 40.0 mi NE 2.3 mph - N/A   Overcast